Tracking 21076 objects as of 10-Aug-2020
HD Live streaming from Space Station
objects crossing your sky now
Track the most recent launched group of Starlink satellites

COSMOS 2251 DEB

Track COSMOS 2251 DEB now!
10-day predictions


NORAD ID: 39110
Int'l Code: 1993-036BTZ
Perigee: 610.9 km
Apogee: 768.7 km
Inclination: 74.0 °
Period: 98.4 minutes
Semi major axis: 7060 km
RCS: 0.003 m2 (small)
Launch date: June 16, 1993
Source: Commonwealth of Independent States (former USSR) (CIS)
Launch site: PLESETSK MISSILE AND SPACE COMPLEX (PKMTR)

Note: This is SATELLITE DEBRIS
aabbcc
Your satellite tracking list
Your tracking list is empty




NASA's NSSDC Master Catalog

Two Line Element Set (TLE):
1 39110U 93036BTZ 20220.75347399 +.00000106 +00000-0 +25263-4 0  9997
2 39110 073.9591 242.6881 0111724 214.8217 267.7111 14.63259611338638
Source of the keplerian elements: AFSPC